{"data":{"norad_id":56498,"epoch":"2026-09-20T21:28:44.212224Z","epoch_age_seconds":80773,"freshness":"FRESH","line1":"1 56498U 23064BC  26263.89495616 -.00000089  00000+0  35142-6 0  9992","line2":"2 56498  69.9995 332.2244 0003531 269.5507  90.5247 14.98330898185472","mean_motion":14.98330898,"eccentricity":0.0003531,"inclination_deg":69.9995,"raan_deg":332.2244,"arg_perigee_deg":269.5507,"mean_anomaly_deg":90.5247,"bstar":3.5142e-7,"rev_number":18547,"period_min":96.106941525543,"perigee_km":569.59900182564,"apogee_km":574.50722608412,"semimajor_km":6950.1901139549,"source":"CELESTRAK","updated_at":"2026-09-21T09:00:33.468679Z"}}